Theta_e
308 307 307 307 307 307 314 319 320 317 316 320 321 322 319 311 318 317 317 316 317 317 317 318 318 318 317 316 315 316 316 314 317 317 318 319 318 319 318 321 333 332 332 331
308 308 308 308 307 306 310 321 319 317 318 322 322 319 318 316 316 317 316 317 317 317 317 317 317 317 316 315 314 316 316 316 316 317 317 317 316 316 316 317 319 327 333 332
308 308 308 307 307 307 310 321 322 320 317 317 318 319 317 317 315 316 315 315 315 316 316 316 317 318 316 315 313 315 313 315 317 318 318 317 318 317 316 316 321 323 323 329
308 308 308 308 309 311 312 318 318 316 318 317 317 317 316 316 315 314 314 315 315 315 315 316 316 315 317 316 315 313 313 314 315 315 315 315 316 316 316 316 316 322 323 325
308 308 308 308 311 313 315 317 318 316 315 315 316 314 315 314 314 314 314 314 313 313 314 314 315 314 315 316 317 315 313 314 315 316 315 316 316 315 315 316 315 316 318 321
308 308 308 308 311 312 314 314 314 316 313 315 315 315 314 314 314 314 313 313 313 313 313 312 312 312 313 314 314 318 316 316 316 317 314 316 317 317 315 315 316 316 316 319
308 308 308 308 311 312 313 313 315 319 316 315 315 314 313 314 313 314 313 314 312 312 312 312 312 312 312 312 313 314 315 318 320 320 317 322 317 316 316 314 315 315 315 316
307 308 308 308 309 313 315 313 314 316 317 315 315 314 314 315 314 314 313 313 312 312 313 315 316 315 315 314 313 312 313 316 320 321 319 316 314 315 315 317 315 314 316 317
308 308 308 308 308 312 314 312 313 316 320 317 314 315 314 315 315 315 314 313 313 313 313 315 317 319 317 316 314 315 314 315 321 320 319 317 314 313 314 314 316 314 314 314
308 308 308 308 308 311 313 315 314 316 320 316 315 316 316 314 314 315 314 314 314 313 313 316 319 318 316 318 316 316 318 320 322 321 320 315 313 313 314 315 314 317 317 318
308 308 308 308 308 310 313 315 314 316 320 316 315 315 316 315 315 317 315 316 315 314 315 315 315 315 315 315 314 317 316 322 320 321 320 319 316 316 317 316 316 315 314 314
308 309 309 308 308 309 311 316 315 314 315 318 316 316 313 314 314 315 315 316 315 314 314 314 313 315 314 315 317 312 318 314 314 315 318 314 313 314 313 313 313 313 313 313
309 309 309 309 308 308 310 316 316 315 318 319 318 317 315 314 313 313 315 314 314 314 313 313 312 314 313 315 314 313 310 308 311 311 312 311 311 309 308 309 310 309 310 312
309 309 309 309 309 309 309 315 316 317 317 320 321 316 316 314 314 313 313 313 313 315 315 315 313 313 311 312 312 310 310 310 309 310 309 307 309 308 308 309 310 310 311 315
311 310 309 309 309 309 311 314 315 316 317 322 320 317 316 316 315 315 315 314 315 318 319 318 317 313 312 311 311 309 309 310 309 310 307 305 306 307 305 307 312 313 315 317
311 311 310 310 310 310 315 318 317 316 316 318 321 319 319 317 317 317 316 316 315 315 315 315 314 313 313 316 316 312 311 310 307 308 308 307 305 305 305 308 311 313 314 314
311 311 311 310 310 311 316 320 317 314 314 318 320 323 322 319 319 318 318 316 316 316 315 315 314 314 312 314 317 313 310 310 309 308 306 306 305 305 305 304 305 308 309 310
311 310 310 310 310 311 315 316 314 313 315 318 322 321 324 321 323 323 318 317 318 317 316 315 313 313 314 316 312 312 310 309 308 308 308 307 307 306 305 304 304 305 307 309
311 310 310 312 313 318 319 315 313 313 315 322 322 325 322 321 320 320 318 317 320 319 317 317 315 318 313 315 313 312 310 309 309 308 308 307 307 307 306 305 304 304 305 305
311 311 316 322 320 317 315 314 316 316 317 318 323 323 325 321 322 321 320 318 318 322 318 317 321 314 316 313 311 312 310 309 308 309 308 307 308 307 307 306 305 305 305 303
315 322 324 320 316 317 320 324 326 326 325 323 323 325 326 320 323 323 319 320 319 319 320 322 322 319 318 313 311 311 311 310 309 308 308 308 308 308 307 306 306 305 304 303
318 316 316 320 321 324 326 327 322 321 324 321 321 321 320 322 322 323 321 320 321 321 318 320 319 319 315 313 311 313 311 310 310 309 308 308 308 307 307 306 306 305 305 304
318 321 324 325 325 324 325 326 324 327 324 322 321 322 327 324 321 321 321 321 320 319 319 325 318 319 315 314 312 311 310 310 311 311 309 309 308 308 307 306 306 306 305 304
325 327 326 325 325 326 326 325 327 323 323 324 322 321 323 325 320 320 320 320 320 319 319 319 320 318 315 315 313 312 312 313 311 311 310 309 307 307 307 307 306 306 306 305
325 325 325 324 323 323 323 324 325 324 323 322 322 320 323 320 319 317 317 316 317 318 320 319 319 317 315 314 312 312 311 310 311 310 308 308 307 307 306 307 307 306 306 306
323 323 324 325 327 325 325 323 324 322 322 322 321 321 321 319 318 318 317 316 316 318 319 316 316 315 313 314 311 310 310 309 309 309 309 307 307 307 306 305 306 307 307 306
324 325 325 326 326 325 325 324 323 320 320 321 319 321 321 318 318 317 316 316 318 315 314 314 316 314 314 312 310 309 308 309 309 308 307 308 307 307 306 306 306 307 307 307
Wind_Speed
25 26 27 28 29 35 13 11 3 12 6 6 6 8 7 3 10 7 2 4 6 7 12 15 16 14 9 13 7 5 9 9 13 19 13 14 16 20 18 13 17 15 14 17
24 25 26 26 24 24 15 5 3 10 6 4 6 7 7 8 12 11 7 6 9 12 9 7 9 11 12 5 3 6 9 7 9 16 15 18 13 17 18 19 18 22 15 14
23 23 24 23 21 20 14 5 2 5 5 6 10 6 9 7 11 10 11 9 7 7 7 6 5 9 7 12 7 10 6 10 14 13 10 14 11 16 18 19 15 15 20 23
21 21 21 21 18 19 9 4 5 5 6 8 8 13 11 14 10 11 6 2 6 7 7 12 11 5 5 8 13 6 6 14 17 20 22 18 18 18 21 24 23 21 18 23
18 19 18 18 17 17 4 6 5 6 5 3 7 5 8 7 9 6 8 8 11 11 9 11 15 14 12 8 11 13 12 15 17 21 21 21 23 20 20 20 17 22 20 25
16 16 16 15 16 15 7 5 2 3 3 9 5 6 5 5 9 8 8 11 9 10 9 14 14 13 15 12 13 11 14 11 12 20 19 20 23 20 20 19 19 15 17 23
13 12 12 13 12 15 10 7 6 3 7 8 7 5 4 8 6 6 8 6 7 7 14 16 15 17 18 18 17 16 15 13 7 12 15 13 16 19 23 23 23 20 21 23
11 9 9 10 9 12 11 10 6 3 3 4 4 5 5 9 3 8 4 4 5 10 11 7 9 8 12 14 17 18 17 13 7 9 12 17 22 16 18 13 19 19 12 16
7 7 6 8 7 7 8 10 5 4 3 8 5 5 2 4 7 4 4 4 7 10 4 2 3 4 7 2 6 10 15 16 12 12 13 17 22 21 9 9 14 14 16 18
5 5 4 5 5 4 6 5 3 7 4 7 4 6 5 3 4 2 2 8 4 8 4 3 3 3 2 4 6 10 8 8 13 12 15 13 18 18 5 10 15 14 16 17
3 3 2 2 2 1 8 5 4 6 5 6 4 2 2 3 2 2 7 1 3 4 4 3 3 3 3 3 3 7 5 6 3 8 10 14 17 13 9 10 13 13 17 21
3 2 2 1 1 2 2 4 3 5 5 5 7 4 3 3 1 3 5 2 4 3 1 1 0 1 2 4 2 3 2 4 4 4 5 13 16 12 17 16 17 22 18 23
3 4 3 2 2 3 3 6 5 7 6 8 10 6 8 5 5 2 3 2 4 3 2 2 0 3 2 3 3 1 6 6 3 6 4 16 19 20 18 18 19 15 20 21
3 4 5 5 5 5 6 7 7 11 10 4 3 2 5 5 5 4 3 7 4 10 4 3 2 2 4 2 3 2 2 5 5 7 13 13 9 10 14 16 14 18 24 20
4 3 3 5 5 5 6 10 10 9 6 5 9 9 11 10 6 7 10 10 10 3 4 4 5 3 3 3 2 1 3 3 2 4 11 9 10 13 15 21 16 17 11 11
6 5 5 5 5 3 5 2 3 2 4 4 4 2 4 7 5 7 8 11 9 4 4 5 2 2 4 2 0 5 4 6 1 4 11 6 13 12 17 15 16 10 9 7
6 8 7 6 6 6 5 3 1 4 5 3 4 3 1 2 3 3 7 9 6 6 4 7 5 5 4 2 2 9 6 1 1 3 4 5 10 8 13 15 20 18 12 15
6 8 7 6 7 8 8 8 7 3 6 5 3 4 3 6 2 2 5 2 5 3 5 3 1 3 4 0 6 6 9 7 2 2 3 2 6 7 11 14 15 14 15 15
4 4 3 3 5 5 2 5 5 6 6 3 2 3 4 6 1 1 3 3 3 4 3 0 3 2 2 4 6 4 4 7 9 7 9 6 6 5 8 12 12 12 10 11
5 4 6 4 2 3 3 2 4 5 5 5 5 8 5 5 2 2 3 4 4 2 3 5 3 3 6 5 4 4 1 7 7 8 8 11 12 9 5 9 10 11 10 12
4 7 2 4 4 4 4 4 5 7 5 6 8 6 8 4 3 3 2 2 2 1 4 5 4 2 3 6 4 2 3 4 3 6 7 6 7 9 9 7 11 11 11 12
7 11 10 5 4 5 6 5 4 2 3 3 7 2 3 3 3 3 4 3 3 3 5 3 1 1 1 4 3 10 3 3 4 3 4 5 5 7 6 7 11 12 12 8
7 5 4 3 4 2 5 1 4 6 6 7 12 12 1 2 1 3 3 3 2 4 4 2 2 2 4 4 5 5 2 3 1 9 3 10 7 5 6 8 13 10 11 11
4 4 3 4 5 1 4 4 10 1 3 2 4 6 2 5 3 3 5 4 3 2 2 1 4 3 4 5 5 6 8 12 3 6 2 2 4 7 10 7 7 10 10 11
4 3 3 6 4 6 2 4 4 2 2 3 6 5 4 3 2 3 3 3 3 3 3 3 1 2 6 5 5 6 8 6 8 7 4 6 5 7 10 13 4 7 8 11
4 5 9 3 3 6 9 3 9 8 10 7 3 5 3 3 1 2 1 5 2 3 5 1 4 2 4 4 5 7 9 7 5 6 8 8 6 5 7 10 12 5 7 10
4 5 4 5 10 7 11 6 5 10 4 4 4 3 1 3 2 2 2 3 5 6 6 4 5 3 4 5 8 7 9 8 7 6 6 10 11 9 7 7 10 10 11 9
Wind_Direction
346 345 344 348 352 348 355 288 315 17 328 256 255 43 19 316 7 4 298 295 295 296 318 317 320 324 323 32 357 286 290 289 266 263 260 192 256 272 251 243 245 269 264 250
347 345 344 348 353 360 334 285 36 43 305 320 352 56 53 58 10 12 6 333 2 337 323 322 290 302 301 49 303 354 318 261 261 266 266 257 237 250 253 267 241 251 247 246
347 345 347 349 350 352 343 281 325 77 58 29 358 5 40 39 71 26 357 328 335 312 297 270 283 305 341 338 281 29 328 279 279 268 268 346 296 261 253 271 248 249 248 260
349 349 350 350 351 348 335 329 53 348 16 26 56 30 19 41 9 360 17 59 39 339 320 330 291 281 326 293 292 234 263 268 272 281 292 296 287 286 287 233 253 254 253 246
352 350 351 360 4 358 37 354 351 62 24 294 65 82 47 27 13 11 343 353 339 318 316 305 305 303 294 278 285 300 251 253 270 276 282 281 278 260 262 278 258 252 261 271
355 351 358 13 17 11 47 46 39 287 346 47 41 49 29 359 9 310 327 352 334 316 345 328 308 294 292 267 258 245 258 266 273 266 262 270 259 254 259 261 263 272 263 267
355 355 7 22 29 19 35 36 345 332 62 49 39 8 16 353 352 310 314 332 322 318 315 308 288 272 260 253 249 234 247 254 244 266 283 260 255 268 272 248 258 257 263 271
359 3 16 31 43 22 19 35 32 358 84 117 154 21 338 292 270 236 354 14 308 305 311 320 309 273 237 268 259 243 237 230 246 246 250 269 276 267 260 317 261 259 311 308
9 10 29 38 50 35 38 51 14 332 342 56 41 13 28 348 345 331 50 13 359 344 341 322 285 338 349 359 305 236 266 255 221 232 244 248 252 255 24 342 272 278 285 289
8 11 28 51 54 53 353 50 6 296 302 63 358 34 24 349 27 293 317 338 19 20 34 332 5 351 337 335 324 334 312 280 246 245 245 253 262 272 115 234 268 328 333 315
344 344 351 66 46 47 356 38 15 340 324 81 16 111 266 228 164 267 8 5 344 47 32 19 8 329 354 310 281 325 297 315 286 238 245 261 8 315 249 322 314 309 309 305
304 297 315 293 157 206 345 311 350 318 280 329 319 299 303 216 334 335 24 45 35 71 51 98 283 303 312 311 333 10 295 334 313 305 307 317 308 312 308 307 296 292 300 291
276 269 265 242 246 231 248 318 345 301 269 276 242 228 199 207 207 80 322 99 125 163 284 72 167 261 30 312 302 347 346 26 293 325 328 323 313 312 305 285 275 295 291 277
268 274 252 229 239 243 245 276 307 305 305 285 5 259 194 213 191 232 273 290 217 123 137 187 171 216 174 264 299 220 254 289 264 254 280 304 286 315 308 306 289 269 267 255
251 254 247 233 244 263 274 280 275 288 310 308 309 205 237 202 229 233 259 274 283 144 176 209 203 182 182 201 250 266 243 277 305 286 306 287 289 308 320 291 270 256 279 284
246 240 247 245 249 275 281 268 131 314 11 297 297 165 197 211 196 248 258 263 273 189 266 282 183 155 215 255 105 268 183 223 268 306 307 317 319 319 327 340 352 14 354 29
257 237 240 244 246 238 252 321 5 323 315 246 273 289 325 68 128 235 248 246 265 296 249 246 142 213 208 354 10 353 135 191 260 4 338 306 342 336 345 352 347 356 8 22
271 235 239 251 270 266 264 258 252 223 248 253 269 282 142 200 165 240 234 193 224 242 238 314 61 133 34 288 341 58 348 108 26 62 145 244 300 4 6 360 4 0 8 6
271 209 203 241 237 233 185 192 262 222 257 286 249 281 297 170 309 177 188 213 239 238 231 163 84 88 239 217 292 56 353 2 15 36 68 83 50 38 34 25 13 6 10 6
167 164 213 212 153 229 275 142 185 198 208 227 238 222 249 242 210 271 254 183 212 232 228 146 113 226 222 234 285 115 71 340 15 37 21 21 14 41 74 67 35 13 13 21
235 217 280 97 187 225 230 244 213 189 213 211 236 195 237 196 246 241 253 240 159 222 251 188 155 253 165 145 178 204 168 136 23 18 38 30 21 356 55 43 70 66 31 24
318 314 291 221 223 227 242 239 252 185 259 231 249 201 338 39 53 35 284 247 189 265 248 90 57 203 306 133 130 167 214 217 132 120 68 39 23 28 33 57 58 46 53 34
273 228 226 216 250 323 231 180 258 6 15 336 348 354 21 94 118 182 236 238 252 242 46 155 221 78 230 106 18 37 67 82 306 106 98 31 346 54 45 47 81 60 66 58
245 208 278 252 224 35 216 302 352 246 200 261 261 272 11 39 72 301 344 338 249 144 56 36 337 1 342 77 26 6 347 115 7 29 72 12 48 17 130 86 58 62 78 60
250 235 231 243 316 298 15 347 290 311 200 209 290 343 78 52 89 358 343 313 322 42 359 349 167 31 64 25 356 354 331 24 81 297 95 52 356 40 40 127 90 76 58 79
241 241 265 282 201 269 300 9 6 360 24 325 51 28 22 52 51 308 332 338 307 1 299 201 45 8 56 26 332 345 348 334 59 46 8 352 5 32 53 29 143 121 86 59
243 247 66 8 296 302 355 27 8 359 338 333 20 9 46 331 291 294 241 308 319 305 348 78 86 41 37 332 314 342 342 336 340 357 348 18 331 28 10 33 41 118 111 98